Location: Samoth
(37.3328°N, 88.7876°W)
Time: 03:51:55
(UTC+00:00)

Envisat - Pass Details

Date: 23 September 2021
Orbit: 764 x 766 km, 98.2° (Epoch: 15 October)

Event Time Altitude Azimuth Distance (km) Brightness Sun altitude
Rises 10:14:34 0° 25° (NNE) 3,236 6.8 -18.4°
Reaches altitude 10° 10:17:12 10° 37° (NE) 2,305 6.2 -17.9°
Maximum altitude 10:21:31 28° 96° (E) 1,409 5.1 -17.1°
Drops below altitude 10° 10:25:49 10° 154° (SSE) 2,292 5.6 -16.3°
Sets 10:28:25 0° 166° (SSE) 3,213 6.3 -15.8°
